GORIZONT 18 [-]

Last updated on Tue Jun 27 2023 00:03:00 GMT+0000 (Coordinated Universal Time)

1 20107U 89052A 23176.80858859 -.00000241 00000+0 00000+0 0 9990 2 20107 13.5503 342.0777 0032540 325.3214 202.4104 0.99401656123596
UTC large
Height (km)
Speed (km/s)
/
Latitude / Longitude
Inclination (degrees)
Orbital Period (minutes)
Azimuth
Elevation
Range (km)
Doppler Factor

Next 0 passes for location: London (51.5072 / 0.1276)

Sorry there are no passes over London.
GORIZONT 18 [-]